User: anonymous   Login
Location: Unspecified
(0.0000°N, 0.0000°E)
Time: 14:53:08
(UTC+02:00)
Language:

SJ-6B - Orbit

View from above orbital plane
View from above orbital plane
View from above satellite
View from above satellite

Ground track
Ground track

The orbit data is extracted from the following two-line orbital elements,

1 28415U 04035C   17269.13057300 -.00000040  00000-0  18316-5 0  9995
2 28415  97.7391 298.7755 0053311 137.3990 223.1391 15.06288497713772
Epoch (UTC): 26 September 2017 03:08:01
Eccentricity: 0.0053311
inclination: 97.7391°
perigee height: 510 km
apogee height: 584 km
right ascension of ascending node: 298.7755°
argument of perigee: 137.3990°
revolutions per day: 15.06288497
mean anomaly at epoch: 223.1391°
orbit number at epoch: 71377

The dashed part of the orbit path shows where the satellite is in the earth's shadow,  

DLR